C/2005 G2 ( SOHO )

Japanese version
Home page
Updated on February 12, 2006

---------------------------------------------------------------------

* Profile

* Orbital Elements

Epoch 2005 Apr. 20.0 TT = JDT 2453480.5
T 2005 Apr. 14.25300 TT                                 MPC
q   0.0492009            (2000.0)            P               Q
n   0.17117101     Peri.   22.23192     -0.20027078     -0.87472552
a   3.2125452      Node    81.62939     +0.81832607     -0.39702389
e   0.9846848      Incl.   26.49073     +0.53873375     +0.27789800
P   5.76

---------------------------------------------------------------------

The orbital elements are published on M.P.E.C. 2005-H24.

---------------------------------------------------------------------

Copyright(C) Seiichi Yoshida (comet@aerith.net). All rights reserved.